OV1-10 R/B

基本信息
目录编号:
2621
目录名称:
OV1-10 R/B
国际标识:
1966-111C
轨道中心:
EARTH
物体状态:
在轨
发射日期:
1966-12-11 UTC
国别:
美国 (US)
轨道信息
数据来源: 国际轨道数据
星历时间: 2026-07-13T22:40:31+0800
半长轴: 6989.736km
偏心率: 0.0055028
轨道倾角: 93.390°
近地点辐角: 340.493°
升交点赤经: 216.517°
平近点角: 19.419°
近地点: 573.135km
远地点: 650.063km
周期: 96.928分钟
每日圈数: 14.856335
详细信息
发射场:
AFWTR
轨道高度:
LEO
数据来源:
AOE Integration Group
参考系:
TEME
时间系统:
UTC
历元类型:
SGP4
2D轨道图
3D轨道图
轨道高度分析图
轨道倾角分析图
轨道综合分析图
查看轨道综合分析图